Weather History for China Lake, CA

Change the Weather History Date:

Wednesday, June 5, 2013

  Actual Average Record
Temperature  
Mean Temperature 83 °F -  
Max Temperature 104 °F 90 °F 104 °F (2013)
Min Temperature 64 °F 63 °F 53 °F (1998)
Cooling Degree Days 18    
Growing Degree Days 33 (Base 50)    
Moisture  
Dew Point 39 °F    
Average Humidity 22    
Maximum Humidity 45    
Minimum Humidity 6    
Precipitation  
Precipitation 0.00 in - - ()
Sea Level Pressure  
Sea Level Pressure 29.78 in    
Wind  
Wind Speed 6 mph (South)    
Max Wind Speed 17 mph    
Max Gust Speed 23 mph    
Visibility 10 miles    
Events      
Averages and records for this station are not official NWS values.
T = Trace of Precipitation, MM = Missing Value Source: NWS Daily Summary

Daily Weather History Graph

Daily Weather History Graph

Search for Another Location

Airport:

Trip Planner

Search our weather history database for the weather conditions in past years. The results will help you decide how hot, cold, wet, or windy it might be!

Date:

Astronomy

Jun. 05, 2013 Rise Set
Actual Time 5:35 AM PDT 8:03 PM PDT
Civil Twilight 5:05 AM PDT 8:33 PM PDT
Nautical Twilight 4:28 AM PDT 9:10 PM PDT
Astronomical Twilight 3:48 AM PDT 9:51 PM PDT
Moon 3:37 AM PDT (6/5) 5:38 PM PDT (6/5)
Length of Visible Light 15h 28m
Length of Day
14h 28m
Waning Crescent, 7% of the Moon is Illuminated
Jun 5
Waning Crescent
Jun 8
New
Jun 16
First Quarter
Jun 23
Full
Jun 29
Last Quarter

Hourly Weather History & Observations

Time (PDT) Temp. Dew Point Humidity Pressure Visibility Wind Dir Wind Speed Gust Speed Precip Events Conditions
12:56 AM 80.1 °F 46.0 °F 30% 29.76 in 10.0 mi SSW 12.7 mph - N/A   Clear
1:56 AM 73.9 °F 44.1 °F 34% 29.77 in 10.0 mi South 6.9 mph - N/A   Clear
2:56 AM 73.0 °F 44.1 °F 35% 29.78 in 10.0 mi SSW 4.6 mph - N/A   Clear
3:56 AM 70.0 °F 43.0 °F 38% 29.78 in 10.0 mi Calm Calm - N/A   Clear
4:56 AM 64.9 °F 41.0 °F 42% 29.81 in 10.0 mi Calm Calm - N/A   Clear
5:56 AM 64.0 °F 42.1 °F 45% 29.82 in 10.0 mi SSW 5.8 mph - N/A   Clear
6:56 AM 72.0 °F 44.1 °F 37% 29.83 in 10.0 mi Calm Calm - N/A   Clear
7:56 AM 77.0 °F 45.0 °F 32% 29.86 in 10.0 mi North 3.5 mph - N/A   Clear
8:56 AM 82.9 °F 46.0 °F 27% 29.86 in 10.0 mi Calm Calm - N/A   Clear
9:56 AM 87.1 °F 46.0 °F 24% 29.85 in 10.0 mi SE 4.6 mph - N/A   Clear
10:56 AM 91.9 °F 42.1 °F 18% 29.84 in 10.0 mi SE 4.6 mph - N/A   Clear
11:56 AM 97.0 °F 35.1 °F 11% 29.83 in 10.0 mi Variable 5.8 mph - N/A   Clear
12:56 PM 100.0 °F 35.1 °F 10% 29.81 in 10.0 mi East 9.2 mph - N/A   Partly Cloudy
1:56 PM 100.9 °F 28.9 °F 8% 29.78 in 10.0 mi ESE 8.1 mph - N/A   Partly Cloudy
2:56 PM 100.9 °F 30.0 °F 8% 29.77 in 10.0 mi Calm Calm - N/A   Partly Cloudy
3:56 PM 102.0 °F 28.0 °F 7% 29.74 in 10.0 mi Calm Calm - N/A   Partly Cloudy
4:56 PM 102.0 °F 23.0 °F 6% 29.72 in 10.0 mi Calm Calm - N/A   Partly Cloudy
5:56 PM 102.0 °F 24.1 °F 6% 29.71 in 10.0 mi Calm Calm - N/A   Scattered Clouds
6:56 PM 100.9 °F 30.0 °F 8% 29.70 in 10.0 mi SSW 9.2 mph - N/A   Clear
7:56 PM 93.9 °F 46.0 °F 19% 29.72 in 10.0 mi West 17.3 mph 23.0 mph N/A   Scattered Clouds
8:03 PM 93.2 °F 46.4 °F 20% 29.79 in 10.0 mi West 15.0 mph - N/A   Scattered Clouds
8:56 PM 91.0 °F 45.0 °F 20% 29.74 in 10.0 mi WSW 11.5 mph - N/A   Clear
9:56 PM 88.0 °F 42.1 °F 20% 29.75 in 10.0 mi SSE 6.9 mph - N/A   Clear
10:56 PM 84.0 °F 42.1 °F 23% 29.76 in 10.0 mi South 5.8 mph - N/A   Clear
11:56 PM 84.9 °F 44.1 °F 24% 29.75 in 10.0 mi South 9.2 mph - N/A   Clear